| time (UTC) | temp F | wind direction | speed MPH | gust MPH | rain 1hr in | rain 24hr in | rain mn in | humidity % | barometer mb |
| 20260510094558 | 63 | 348 | 3.0 | 6.0 | 0.00 | 0.00 | 0.00 | 69 | 1014.3 |
| 20260510094057 | 62 | 355 | 3.0 | 6.0 | 0.00 | 0.00 | 0.00 | 71 | 1014.2 |
| 20260510093556 | 62 | 339 | 1.0 | 3.0 | 0.00 | 0.00 | 0.00 | 72 | 1014.0 |
| 20260510093054 | 62 | 340 | 1.0 | 3.0 | 0.00 | 0.00 | 0.00 | 71 | 1014.1 |
| 20260510092557 | 63 | 340 | 1.0 | 8.0 | 0.00 | 0.00 | 0.00 | 70 | 1014.0 |
| 20260510092055 | 63 | 0 | 1.0 | 8.0 | 0.00 | 0.00 | 0.00 | 70 | 1013.9 |
| 20260510091557 | 63 | 355 | 5.0 | 8.0 | 0.00 | 0.00 | 0.00 | 70 | 1014.0 |
| 20260510091056 | 62 | 12 | 1.0 | 5.0 | 0.00 | 0.00 | 0.00 | 72 | 1014.0 |
| 20260510090558 | 62 | 355 | 0.0 | 5.0 | 0.00 | 0.00 | 0.00 | 72 | 1013.9 |
| 20260510090110 | 63 | 180 | 3.0 | 6.0 | 0.00 | 0.00 | 0.00 | 71 | 1014.0 |
| 20260510085556 | 63 | 360 | 2.0 | 8.0 | 0.00 | 0.00 | 0.00 | 70 | 1014.1 |
| 20260510085056 | 62 | 348 | 4.0 | 8.0 | 0.00 | 0.00 | 0.00 | 70 | 1014.2 |
| 20260510084558 | 62 | 9 | 4.0 | 8.0 | 0.00 | 0.00 | 0.00 | 71 | 1014.4 |
| 20260510084057 | 61 | 344 | 4.0 | 5.0 | 0.00 | 0.00 | 0.00 | 74 | 1014.2 |
| 20260510083559 | 61 | 321 | 3.0 | 5.0 | 0.00 | 0.00 | 0.00 | 75 | 1014.2 |
| 20260510083102 | 61 | 315 | 3.0 | 9.0 | 0.00 | 0.00 | 0.00 | 76 | 1014.0 |
| 20260510082556 | 61 | 55 | 5.0 | 8.0 | 0.00 | 0.00 | 0.00 | 75 | 1013.8 |
| 20260510082057 | 60 | 73 | 5.0 | 11.0 | 0.00 | 0.00 | 0.00 | 76 | 1013.8 |
| 20260510081601 | 60 | 36 | 3.0 | 13.0 | 0.00 | 0.00 | 0.00 | 77 | 1013.8 |
| 20260510081056 | 60 | 26 | 8.0 | 13.0 | 0.00 | 0.00 | 0.00 | 78 | 1013.8 |
| 20260510080556 | 60 | 27 | 10.0 | 13.0 | 0.00 | 0.00 | 0.00 | 79 | 1013.8 |
| 20260510080105 | 61 | 45 | 4.0 | 9.0 | 0.00 | 0.00 | 0.00 | 77 | 1013.6 |
| 20260510075555 | 61 | 42 | 0.0 | 0.0 | 0.00 | 0.00 | 0.00 | 77 | 1013.6 |
| 20260510075059 | 61 | 0 | 0.0 | 0.0 | 0.00 | 0.00 | 0.00 | 77 | 1013.4 |
| 20260510074558 | 61 | 0 | 0.0 | 0.0 | 0.00 | 0.00 | 0.00 | 78 | 1013.5 |
| 20260510074056 | 61 | 0 | 0.0 | 0.0 | 0.00 | 0.00 | 0.00 | 79 | 1013.6 |
| 20260510073556 | 61 | 0 | 0.0 | 0.0 | 0.00 | 0.00 | 0.00 | 79 | 1013.5 |
| 20260510073108 | 61 | 0 | 0.0 | 0.0 | 0.00 | 0.00 | 0.00 | 79 | 1013.4 |
| 20260510072556 | 61 | 0 | 0.0 | 0.0 | 0.00 | 0.00 | 0.00 | 77 | 1013.4 |
| 20260510072100 | 62 | 0 | 0.0 | 0.0 | 0.00 | 0.00 | 0.00 | 76 | 1013.3 |
| 20260510071600 | 62 | 0 | 0.0 | 0.0 | 0.00 | 0.00 | 0.00 | 75 | 1013.2 |
| 20260510071056 | 63 | 0 | 0.0 | 0.0 | 0.00 | 0.00 | 0.00 | 74 | 1013.2 |
| 20260510070556 | 63 | 0 | 0.0 | 1.0 | 0.00 | 0.00 | 0.00 | 73 | 1013.3 |
| 20260510070059 | 64 | 0 | 0.0 | 3.0 | 0.00 | 0.00 | 0.00 | 72 | 1013.2 |
| 20260510065558 | 64 | 0 | 0.0 | 5.0 | 0.00 | 0.00 | 0.00 | 71 | 1013.3 |
| 20260510065055 | 64 | 0 | 2.0 | 5.0 | 0.00 | 0.00 | 0.00 | 71 | 1013.3 |
| 20260510064556 | 64 | 148 | 3.0 | 4.0 | 0.00 | 0.00 | 0.00 | 70 | 1013.4 |
| 20260510064056 | 64 | 167 | 0.0 | 3.0 | 0.00 | 0.00 | 0.00 | 71 | 1013.4 |
| 20260510063556 | 64 | 0 | 0.0 | 2.0 | 0.00 | 0.00 | 0.00 | 72 | 1013.5 |
| 20260510063102 | 63 | 0 | 0.0 | 2.0 | 0.00 | 0.00 | 0.00 | 72 | 1013.5 |
| 20260510062555 | 63 | 233 | 1.0 | 3.0 | 0.00 | 0.00 | 0.00 | 73 | 1013.6 |
| 20260510062055 | 62 | 0 | 1.0 | 3.0 | 0.00 | 0.00 | 0.00 | 75 | 1013.6 |
| 20260510061606 | 61 | 255 | 0.0 | 3.0 | 0.00 | 0.00 | 0.00 | 78 | 1013.6 |
| 20260510061059 | 61 | 333 | 1.0 | 3.0 | 0.00 | 0.00 | 0.00 | 78 | 1013.7 |
| 20260510060556 | 61 | 333 | 1.0 | 3.0 | 0.00 | 0.00 | 0.00 | 76 | 1013.7 |
| 20260510060058 | 62 | 0 | 0.0 | 3.0 | 0.00 | 0.00 | 0.00 | 75 | 1013.7 |
| 20260510055556 | 63 | 112 | 1.0 | 3.0 | 0.00 | 0.00 | 0.00 | 74 | 1013.7 |
| 20260510055056 | 64 | 174 | 0.0 | 3.0 | 0.00 | 0.00 | 0.00 | 73 | 1013.8 |
| 20260510054606 | 64 | 140 | 0.0 | 3.0 | 0.00 | 0.00 | 0.00 | 72 | 1013.6 |
| 20260510054056 | 64 | 123 | 1.0 | 3.0 | 0.00 | 0.00 | 0.00 | 71 | 1013.6 |
| 20260510053556 | 65 | 136 | 1.0 | 5.0 | 0.00 | 0.00 | 0.00 | 69 | 1013.5 |
| 20260510053059 | 66 | 139 | 1.0 | 5.0 | 0.00 | 0.00 | 0.00 | 68 | 1013.5 |
| 20260510052557 | 66 | 149 | 2.0 | 4.0 | 0.00 | 0.00 | 0.00 | 66 | 1013.5 |
| 20260510052057 | 66 | 132 | 1.0 | 4.0 | 0.00 | 0.00 | 0.00 | 61 | 1013.4 |
| 20260510051555 | 66 | 0 | 0.0 | 0.0 | 0.00 | 0.00 | 0.00 | 65 | 1013.4 |
| 20260510051056 | 66 | 0 | 0.0 | 0.0 | 0.00 | 0.00 | 0.00 | 65 | 1013.4 |
| 20260510050555 | 66 | 0 | 0.0 | 0.0 | 0.00 | 0.00 | 0.00 | 65 | 1013.3 |
| 20260510050058 | 66 | 0 | 0.0 | 0.0 | 0.00 | 0.00 | 0.00 | 65 | 1013.2 |
| 20260510045556 | 67 | 0 | 0.0 | 0.0 | 0.00 | 0.00 | 0.00 | 63 | 1013.3 |
| 20260510045056 | 67 | 0 | 0.0 | 0.0 | 0.00 | 0.00 | 0.00 | 63 | 1013.2 |
| 20260510044556 | 68 | 0 | 0.0 | 3.0 | 0.00 | 0.00 | 0.00 | 62 | 1013.1 |
| 20260510044055 | 68 | 0 | 0.0 | 3.0 | 0.00 | 0.00 | 0.00 | 62 | 1013.0 |
| 20260510043556 | 68 | 123 | 0.0 | 3.0 | 0.00 | 0.00 | 0.00 | 61 | 1012.8 |
| 20260510043058 | 68 | 0 | 0.0 | 0.0 | 0.00 | 0.00 | 0.00 | 61 | 1013.0 |
| 20260510042600 | 68 | 0 | 0.0 | 0.0 | 0.00 | 0.00 | 0.00 | 61 | 1013.0 |
| 20260510042057 | 68 | 0 | 0.0 | 0.0 | 0.00 | 0.00 | 0.00 | 61 | 1012.9 |
| 20260510041635 | 68 | 0 | 0.0 | 0.0 | 0.00 | 0.00 | 0.00 | 60 | 1012.8 |
| 20260510041056 | 69 | 0 | 0.0 | 0.0 | 0.00 | 0.00 | 0.00 | 61 | 1012.7 |
| 20260510040556 | 69 | 0 | 0.0 | 0.0 | 0.00 | 0.00 | 0.00 | 60 | 1012.7 |
| 20260510040057 | 69 | 0 | 0.0 | 0.0 | 0.00 | 0.00 | 0.00 | 61 | 1012.5 |
| 20260510035556 | 69 | 0 | 0.0 | 1.0 | 0.00 | 0.00 | 0.00 | 61 | 1012.5 |
| 20260510035100 | 69 | 0 | 0.0 | 3.0 | 0.00 | 0.00 | 0.00 | 61 | 1012.6 |
| 20260510034559 | 70 | 0 | 0.0 | 3.0 | 0.00 | 0.00 | 0.00 | 61 | 1012.6 |
| 20260510034059 | 70 | 19 | 1.0 | 3.0 | 0.00 | 0.00 | 0.00 | 59 | 1012.6 |
| 20260510033556 | 70 | 19 | 1.0 | 3.0 | 0.00 | 0.00 | 0.00 | 59 | 1012.7 |
| 20260510033113 | 70 | 34 | 1.0 | 3.0 | 0.00 | 0.00 | 0.00 | 59 | 1012.3 |
| 20260510032556 | 70 | 49 | 0.0 | 2.0 | 0.00 | 0.00 | 0.00 | 59 | 1012.3 |
| 20260510032056 | 70 | 0 | 0.0 | 0.0 | 0.00 | 0.00 | 0.00 | 59 | 1012.3 |
| 20260510031602 | 70 | 0 | 0.0 | 0.0 | 0.00 | 0.00 | 0.00 | 59 | 1012.3 |
| 20260510031056 | 71 | 0 | 0.0 | 1.0 | 0.00 | 0.00 | 0.00 | 58 | 1012.2 |
| 20260510030558 | 71 | 0 | 0.0 | 2.0 | 0.00 | 0.00 | 0.00 | 58 | 1012.2 |
| 20260510030058 | 71 | 0 | 0.0 | 2.0 | 0.00 | 0.00 | 0.00 | 57 | 1012.2 |
| 20260510025556 | 71 | 0 | 0.0 | 2.0 | 0.00 | 0.00 | 0.00 | 57 | 1012.0 |
| 20260510025059 | 71 | 0 | 0.0 | 0.0 | 0.00 | 0.00 | 0.00 | 57 | 1011.9 |
| 20260510024610 | 71 | 0 | 0.0 | 0.0 | 0.00 | 0.00 | 0.00 | 57 | 1011.8 |
| 20260510024057 | 71 | 0 | 0.0 | 0.0 | 0.00 | 0.00 | 0.00 | 56 | 1011.7 |
| 20260510023556 | 72 | 0 | 0.0 | 2.0 | 0.00 | 0.00 | 0.00 | 56 | 1011.6 |
| 20260510023101 | 72 | 0 | 0.0 | 3.0 | 0.00 | 0.00 | 0.00 | 55 | 1011.4 |
| 20260510022556 | 73 | 111 | 1.0 | 6.0 | 0.00 | 0.00 | 0.00 | 54 | 1011.3 |
| 20260510022055 | 73 | 86 | 2.0 | 6.0 | 0.00 | 0.00 | 0.00 | 53 | 1011.2 |
| 20260510021557 | 74 | 103 | 3.0 | 6.0 | 0.00 | 0.00 | 0.00 | 51 | 1011.1 |
| 20260510021055 | 74 | 0 | 0.0 | 0.0 | 0.00 | 0.00 | 0.00 | 49 | 1011.0 |
| 20260510020557 | 74 | 0 | 0.0 | 2.0 | 0.00 | 0.00 | 0.00 | 49 | 1011.0 |
| 20260510020056 | 75 | 0 | 0.0 | 3.0 | 0.00 | 0.00 | 0.00 | 48 | 1010.8 |
| 20260510015600 | 75 | 0 | 1.0 | 4.0 | 0.00 | 0.00 | 0.00 | 48 | 1010.8 |
| 20260510015055 | 75 | 0 | 2.0 | 4.0 | 0.00 | 0.00 | 0.00 | 48 | 1010.7 |
| 20260510014613 | 75 | 192 | 2.0 | 4.0 | 0.00 | 0.00 | 0.00 | 47 | 1010.7 |
| 20260510014056 | 76 | 178 | 2.0 | 5.0 | 0.00 | 0.00 | 0.00 | 46 | 1010.5 |
| 20260510013557 | 76 | 178 | 2.0 | 5.0 | 0.00 | 0.00 | 0.00 | 45 | 1010.4 |
| 20260510013104 | 76 | 210 | 3.0 | 5.0 | 0.00 | 0.00 | 0.00 | 44 | 1010.4 |
| 20260510012556 | 76 | 244 | 3.0 | 4.0 | 0.00 | 0.00 | 0.00 | 44 | 1010.4 |
| 20260510012056 | 76 | 236 | 2.0 | 4.0 | 0.00 | 0.00 | 0.00 | 44 | 1010.4 |
| 20260510011557 | 77 | 242 | 2.0 | 4.0 | 0.00 | 0.00 | 0.00 | 44 | 1010.3 |
| 20260510011055 | 77 | 238 | 2.0 | 4.0 | 0.00 | 0.00 | 0.00 | 44 | 1010.2 |
| 20260510010556 | 77 | 240 | 3.0 | 5.0 | 0.00 | 0.00 | 0.00 | 44 | 1010.2 |
| 20260510010111 | 77 | 242 | 3.0 | 5.0 | 0.00 | 0.00 | 0.00 | 43 | 1010.5 |
| 20260510005556 | 77 | 248 | 3.0 | 7.0 | 0.00 | 0.00 | 0.00 | 43 | 1010.4 |
| 20260510005055 | 78 | 238 | 4.0 | 7.0 | 0.00 | 0.00 | 0.00 | 42 | 1010.3 |
| 20260510004605 | 78 | 239 | 4.0 | 7.0 | 0.00 | 0.00 | 0.00 | 41 | 1010.3 |
| 20260510004055 | 79 | 262 | 3.0 | 4.0 | 0.00 | 0.00 | 0.00 | 41 | 1009.8 |
| 20260510003556 | 79 | 244 | 2.0 | 4.0 | 0.00 | 0.00 | 0.00 | 39 | 1009.8 |
| 20260510003103 | 79 | 257 | 2.0 | 4.0 | 0.00 | 0.00 | 0.00 | 40 | 1009.7 |
| 20260510002558 | 79 | 232 | 2.0 | 5.0 | 0.00 | 0.00 | 0.00 | 40 | 1009.7 |
| 20260510002055 | 79 | 234 | 3.0 | 5.0 | 0.00 | 0.00 | 0.00 | 40 | 1009.7 |
| 20260510001558 | 80 | 244 | 2.0 | 5.0 | 0.00 | 0.00 | 0.00 | 39 | 1009.7 |
| 20260510001056 | 80 | 225 | 2.0 | 6.0 | 0.00 | 0.00 | 0.00 | 39 | 1009.8 |
| 20260510000558 | 80 | 222 | 4.0 | 6.0 | 0.00 | 0.00 | 0.00 | 40 | 1009.8 |
| 20260510000058 | 80 | 236 | 3.0 | 6.0 | 0.00 | 0.00 | 0.00 | 40 | 1009.7 |
| 20260509235559 | 81 | 205 | 2.0 | 6.0 | 0.00 | 0.00 | 0.00 | 38 | 1009.8 |
| 20260509235059 | 81 | 232 | 2.0 | 6.0 | 0.00 | 0.00 | 0.00 | 39 | 1009.8 |
| 20260509234557 | 81 | 232 | 3.0 | 8.0 | 0.00 | 0.00 | 0.00 | 38 | 1009.9 |
| 20260509234055 | 81 | 226 | 3.0 | 9.0 | 0.00 | 0.00 | 0.00 | 36 | 1009.9 |
| 20260509233557 | 81 | 221 | 4.0 | 9.0 | 0.00 | 0.00 | 0.00 | 36 | 1009.9 |
| 20260509233112 | 82 | 246 | 4.0 | 8.0 | 0.00 | 0.00 | 0.00 | 36 | 1009.9 |
| 20260509232557 | 82 | 221 | 3.0 | 6.0 | 0.00 | 0.00 | 0.00 | 35 | 1009.8 |
| 20260509232056 | 82 | 258 | 2.0 | 5.0 | 0.00 | 0.00 | 0.00 | 34 | 1009.9 |
| 20260509231610 | 83 | 290 | 0.0 | 3.0 | 0.00 | 0.00 | 0.00 | 37 | 1009.9 |
| 20260509231056 | 82 | 0 | 0.0 | 3.0 | 0.00 | 0.00 | 0.00 | 34 | 1009.9 |
| 20260509230559 | 82 | 105 | 1.0 | 4.0 | 0.00 | 0.00 | 0.00 | 34 | 1009.8 |
| 20260509230108 | 83 | 131 | 1.0 | 4.0 | 0.00 | 0.00 | 0.00 | 34 | 1009.9 |
| 20260509225556 | 82 | 109 | 0.0 | 2.0 | 0.00 | 0.00 | 0.00 | 35 | 1009.8 |
| 20260509225056 | 82 | 0 | 0.0 | 5.0 | 0.00 | 0.00 | 0.00 | 36 | 1009.8 |
| 20260509224608 | 81 | 171 | 1.0 | 6.0 | 0.00 | 0.00 | 0.00 | 39 | 1009.8 |
| 20260509224056 | 81 | 185 | 3.0 | 6.0 | 0.00 | 0.00 | 0.00 | 39 | 1009.7 |
| 20260509223556 | 81 | 171 | 2.0 | 6.0 | 0.00 | 0.00 | 0.00 | 38 | 1009.7 |
| 20260509223103 | 81 | 107 | 2.0 | 5.0 | 0.00 | 0.00 | 0.00 | 38 | 1009.7 |
| 20260509222559 | 80 | 182 | 0.0 | 5.0 | 0.00 | 0.00 | 0.00 | 38 | 1009.7 |
| 20260509222056 | 80 | 130 | 1.0 | 5.0 | 0.00 | 0.00 | 0.00 | 39 | 1009.8 |
| 20260509221600 | 79 | 169 | 2.0 | 9.0 | 0.00 | 0.00 | 0.00 | 41 | 1009.7 |
| 20260509221056 | 79 | 159 | 4.0 | 9.0 | 0.00 | 0.00 | 0.00 | 39 | 1009.8 |
| 20260509220555 | 80 | 169 | 4.0 | 9.0 | 0.00 | 0.00 | 0.00 | 39 | 1009.8 |
| 20260509215559 | 80 | 189 | 2.0 | 7.0 | 0.00 | 0.00 | 0.00 | 39 | 1009.8 |
| 20260509215056 | 80 | 200 | 3.0 | 9.0 | 0.00 | 0.00 | 0.00 | 39 | 1009.8 |
| 20260509214558 | 80 | 192 | 4.0 | 10.0 | 0.00 | 0.00 | 0.00 | 37 | 1009.9 |
| 20260509214056 | 81 | 222 | 6.0 | 10.0 | 0.00 | 0.00 | 0.00 | 37 | 1009.8 |
| 20260509213556 | 83 | 180 | 4.0 | 9.0 | 0.00 | 0.00 | 0.00 | 36 | 1009.8 |
| 20260509213059 | 83 | 153 | 3.0 | 9.0 | 0.00 | 0.00 | 0.00 | 36 | 1009.8 |
| 20260509212555 | 83 | 146 | 3.0 | 9.0 | 0.00 | 0.00 | 0.00 | 34 | 1009.8 |
| 20260509212055 | 83 | 155 | 5.0 | 9.0 | 0.00 | 0.00 | 0.00 | 33 | 1010.1 |
| 20260509211601 | 84 | 175 | 2.0 | 6.0 | 0.00 | 0.00 | 0.00 | 31 | 1010.0 |
| 20260509211056 | 83 | 167 | 0.0 | 7.0 | 0.00 | 0.00 | 0.00 | 31 | 1010.1 |
| 20260509210556 | 83 | 140 | 2.0 | 7.0 | 0.00 | 0.00 | 0.00 | 33 | 1010.1 |
| 20260509210105 | 82 | 215 | 3.0 | 7.0 | 0.00 | 0.00 | 0.00 | 33 | 1010.0 |
| 20260509205556 | 82 | 143 | 1.0 | 5.0 | 0.00 | 0.00 | 0.00 | 35 | 1010.2 |
| 20260509205056 | 81 | 149 | 1.0 | 5.0 | 0.00 | 0.00 | 0.00 | 34 | 1010.2 |
| 20260509204554 | 81 | 247 | 1.0 | 5.0 | 0.00 | 0.00 | 0.00 | 32 | 1010.2 |
| 20260509204056 | 82 | 212 | 3.0 | 5.0 | 0.00 | 0.00 | 0.00 | 32 | 1010.3 |
| 20260509203602 | 81 | 186 | 2.0 | 5.0 | 0.00 | 0.00 | 0.00 | 32 | 1010.2 |
| 20260509203059 | 80 | 0 | 3.0 | 5.0 | 0.00 | 0.00 | 0.00 | 31 | 1010.3 |
| 20260509202558 | 80 | 319 | 3.0 | 9.0 | 0.00 | 0.00 | 0.00 | 32 | 1010.5 |
| 20260509202056 | 81 | 319 | 2.0 | 9.0 | 0.00 | 0.00 | 0.00 | 34 | 1010.5 |
| 20260509201555 | 81 | 351 | 4.0 | 9.0 | 0.00 | 0.00 | 0.00 | 33 | 1010.5 |
| 20260509201055 | 82 | 333 | 1.0 | 9.0 | 0.00 | 0.00 | 0.00 | 33 | 1010.6 |
| 20260509200555 | 82 | 84 | 4.0 | 11.0 | 0.00 | 0.00 | 0.00 | 34 | 1010.7 |
| 20260509200057 | 82 | 153 | 3.0 | 11.0 | 0.00 | 0.00 | 0.00 | 35 | 1010.7 |
| 20260509195556 | 81 | 68 | 5.0 | 11.0 | 0.00 | 0.00 | 0.00 | 33 | 1010.8 |
| 20260509195055 | 81 | 349 | 5.0 | 10.0 | 0.00 | 0.00 | 0.00 | 35 | 1010.8 |
| 20260509194558 | 81 | 321 | 1.0 | 11.0 | 0.00 | 0.00 | 0.00 | 36 | 1010.9 |
| 20260509194055 | 80 | 355 | 3.0 | 11.0 | 0.00 | 0.00 | 0.00 | 35 | 1010.9 |
| 20260509193556 | 80 | 321 | 5.0 | 12.0 | 0.00 | 0.00 | 0.00 | 36 | 1010.9 |
| 20260509193057 | 81 | 298 | 9.0 | 12.0 | 0.00 | 0.00 | 0.00 | 35 | 1010.9 |
| 20260509192600 | 81 | 300 | 2.0 | 8.0 | 0.00 | 0.00 | 0.00 | 37 | 1011.0 |
| 20260509192056 | 80 | 208 | 3.0 | 8.0 | 0.00 | 0.00 | 0.00 | 36 | 1011.1 |
| 20260509191554 | 80 | 334 | 4.0 | 12.0 | 0.00 | 0.00 | 0.00 | 36 | 1011.1 |
| 20260509191056 | 80 | 200 | 5.0 | 12.0 | 0.00 | 0.00 | 0.00 | 38 | 1011.1 |
| 20260509190555 | 80 | 332 | 4.0 | 11.0 | 0.00 | 0.00 | 0.00 | 36 | 1011.0 |
| 20260509190056 | 81 | 324 | 6.0 | 11.0 | 0.00 | 0.00 | 0.00 | 35 | 1011.1 |
| 20260509185557 | 81 | 0 | 1.0 | 5.0 | 0.00 | 0.00 | 0.00 | 36 | 1010.9 |
| 20260509185056 | 81 | 59 | 1.0 | 5.0 | 0.00 | 0.00 | 0.00 | 34 | 1010.8 |
| 20260509184556 | 80 | 0 | 1.0 | 11.0 | 0.00 | 0.00 | 0.00 | 34 | 1011.0 |
| 20260509184056 | 80 | 360 | 4.0 | 13.0 | 0.00 | 0.00 | 0.00 | 33 | 1011.1 |
| 20260509183556 | 79 | 233 | 6.0 | 13.0 | 0.00 | 0.00 | 0.00 | 35 | 1011.1 |
| 20260509183057 | 79 | 352 | 8.0 | 13.0 | 0.00 | 0.00 | 0.00 | 38 | 1011.1 |
| 20260509182555 | 79 | 294 | 9.0 | 13.0 | 0.00 | 0.00 | 0.00 | 36 | 1011.1 |
| 20260509182056 | 79 | 290 | 6.0 | 11.0 | 0.00 | 0.00 | 0.00 | 42 | 1011.0 |
| 20260509181557 | 80 | 279 | 5.0 | 10.0 | 0.00 | 0.00 | 0.00 | 43 | 1011.1 |
| 20260509181056 | 79 | 165 | 4.0 | 9.0 | 0.00 | 0.00 | 0.00 | 43 | 1011.0 |
| 20260509180556 | 79 | 167 | 4.0 | 10.0 | 0.00 | 0.00 | 0.00 | 46 | 1010.8 |
| 20260509180100 | 79 | 0 | 3.0 | 10.0 | 0.00 | 0.00 | 0.00 | 46 | 1010.9 |
| 20260509175558 | 78 | 266 | 3.0 | 11.0 | 0.00 | 0.00 | 0.00 | 48 | 1011.1 |
| 20260509175056 | 79 | 329 | 6.0 | 14.0 | 0.00 | 0.00 | 0.00 | 47 | 1011.2 |
| 20260509174556 | 79 | 207 | 5.0 | 14.0 | 0.00 | 0.00 | 0.00 | 48 | 1011.0 |
| 20260509174056 | 78 | 169 | 6.0 | 13.0 | 0.00 | 0.00 | 0.00 | 49 | 1011.0 |
| 20260509173555 | 79 | 128 | 4.0 | 12.0 | 0.00 | 0.00 | 0.00 | 46 | 1011.0 |
| 20260509173118 | 79 | 192 | 5.0 | 14.0 | 0.00 | 0.00 | 0.00 | 50 | 1011.1 |
| 20260509172556 | 79 | 238 | 4.0 | 14.0 | 0.00 | 0.00 | 0.00 | 47 | 1011.2 |
| 20260509172056 | 78 | 163 | 2.0 | 11.0 | 0.00 | 0.00 | 0.00 | 50 | 1011.2 |
| 20260509171555 | 78 | 220 | 5.0 | 11.0 | 0.00 | 0.00 | 0.00 | 52 | 1011.2 |
| 20260509171056 | 78 | 162 | 4.0 | 12.0 | 0.00 | 0.00 | 0.00 | 55 | 1011.2 |
| 20260509170558 | 76 | 155 | 6.0 | 13.0 | 0.00 | 0.00 | 0.00 | 56 | 1011.2 |
| 20260509170112 | 76 | 244 | 7.0 | 14.0 | 0.00 | 0.00 | 0.00 | 57 | 1011.2 |
| 20260509165556 | 76 | 184 | 7.0 | 14.0 | 0.00 | 0.00 | 0.00 | 56 | 1011.3 |
| 20260509165056 | 77 | 197 | 5.0 | 13.0 | 0.00 | 0.00 | 0.00 | 60 | 1011.4 |
| 20260509164602 | 77 | 184 | 4.0 | 13.0 | 0.00 | 0.00 | 0.00 | 57 | 1011.3 |
| 20260509164056 | 77 | 211 | 4.0 | 9.0 | 0.00 | 0.00 | 0.00 | 58 | 1011.3 |
| 20260509163556 | 76 | 213 | 2.0 | 11.0 | 0.00 | 0.00 | 0.00 | 60 | 1011.4 |
| 20260509163058 | 75 | 176 | 6.0 | 11.0 | 0.00 | 0.00 | 0.00 | 59 | 1011.3 |
| 20260509162556 | 75 | 205 | 5.0 | 13.0 | 0.00 | 0.00 | 0.00 | 59 | 1011.5 |
| 20260509162100 | 74 | 186 | 5.0 | 13.0 | 0.00 | 0.00 | 0.00 | 61 | 1011.4 |
| 20260509161556 | 74 | 169 | 3.0 | 9.0 | 0.00 | 0.00 | 0.00 | 62 | 1011.4 |
| 20260509161055 | 74 | 234 | 4.0 | 9.0 | 0.00 | 0.00 | 0.00 | 56 | 1011.5 |
| 20260509160556 | 74 | 243 | 3.0 | 9.0 | 0.00 | 0.00 | 0.00 | 58 | 1011.5 |
| 20260509160057 | 74 | 242 | 5.0 | 10.0 | 0.00 | 0.00 | 0.00 | 57 | 1011.4 |
| 20260509155556 | 73 | 0 | 4.0 | 10.0 | 0.00 | 0.00 | 0.00 | 60 | 1011.3 |
| 20260509155055 | 73 | 191 | 5.0 | 10.0 | 0.00 | 0.00 | 0.00 | 60 | 1011.4 |
| 20260509154603 | 73 | 172 | 3.0 | 8.0 | 0.00 | 0.00 | 0.00 | 61 | 1011.4 |
| 20260509154056 | 73 | 215 | 3.0 | 8.0 | 0.00 | 0.00 | 0.00 | 60 | 1011.4 |
| 20260509153607 | 73 | 219 | 2.0 | 5.0 | 0.00 | 0.00 | 0.00 | 62 | 1011.4 |
| 20260509153056 | 72 | 228 | 2.0 | 5.0 | 0.00 | 0.00 | 0.00 | 64 | 1011.3 |
| 20260509152556 | 72 | 0 | 2.0 | 5.0 | 0.00 | 0.00 | 0.00 | 66 | 1011.3 |
| 20260509152056 | 71 | 260 | 0.0 | 5.0 | 0.00 | 0.00 | 0.00 | 68 | 1011.3 |
| 20260509151615 | 70 | 193 | 1.0 | 5.0 | 0.00 | 0.00 | 0.00 | 69 | 1011.3 |
| 20260509151056 | 70 | 221 | 0.0 | 5.0 | 0.00 | 0.00 | 0.00 | 69 | 1011.3 |
| 20260509150556 | 69 | 244 | 0.0 | 5.0 | 0.00 | 0.00 | 0.00 | 70 | 1011.3 |
| 20260509150058 | 68 | 0 | 2.0 | 7.0 | 0.00 | 0.00 | 0.00 | 72 | 1011.4 |
| 20260509145556 | 68 | 0 | 1.0 | 7.0 | 0.00 | 0.00 | 0.00 | 73 | 1011.5 |
| 20260509145055 | 67 | 228 | 3.0 | 9.0 | 0.00 | 0.00 | 0.00 | 74 | 1011.5 |
| 20260509144558 | 67 | 271 | 4.0 | 9.0 | 0.00 | 0.00 | 0.00 | 75 | 1011.6 |
| 20260509144056 | 67 | 259 | 3.0 | 6.0 | 0.00 | 0.00 | 0.00 | 75 | 1011.6 |
| 20260509143556 | 67 | 262 | 2.0 | 7.0 | 0.00 | 0.00 | 0.00 | 77 | 1011.5 |
| 20260509143106 | 66 | 0 | 2.0 | 7.0 | 0.00 | 0.00 | 0.00 | 77 | 1011.5 |
| 20260509142556 | 65 | 0 | 3.0 | 7.0 | 0.00 | 0.00 | 0.00 | 78 | 1011.6 |
| 20260509142058 | 65 | 229 | 2.0 | 4.0 | 0.00 | 0.00 | 0.00 | 80 | 1011.4 |
| 20260509141600 | 64 | 0 | 0.0 | 8.0 | 0.00 | 0.00 | 0.00 | 80 | 1011.4 |
| 20260509141057 | 64 | 290 | 3.0 | 8.0 | 0.00 | 0.00 | 0.00 | 81 | 1011.4 |
| 20260509140556 | 63 | 152 | 3.0 | 7.0 | 0.00 | 0.00 | 0.00 | 81 | 1011.4 |
| 20260509140055 | 63 | 251 | 3.0 | 7.0 | 0.00 | 0.00 | 0.00 | 82 | 1011.3 |
| 20260509135556 | 62 | 252 | 3.0 | 8.0 | 0.00 | 0.00 | 0.00 | 83 | 1011.4 |
| 20260509135058 | 62 | 261 | 3.0 | 10.0 | 0.00 | 0.00 | 0.00 | 83 | 1011.4 |
| 20260509134600 | 62 | 243 | 5.0 | 10.0 | 0.00 | 0.00 | 0.00 | 83 | 1011.7 |
| 20260509134057 | 61 | 230 | 4.0 | 8.0 | 0.00 | 0.00 | 0.00 | 83 | 1011.6 |
| 20260509133557 | 61 | 238 | 2.0 | 7.0 | 0.00 | 0.00 | 0.00 | 84 | 1011.6 |
| 20260509133105 | 61 | 217 | 3.0 | 7.0 | 0.00 | 0.00 | 0.00 | 84 | 1011.6 |
| 20260509132556 | 61 | 198 | 2.0 | 7.0 | 0.00 | 0.00 | 0.00 | 85 | 1011.6 |
| 20260509132057 | 60 | 201 | 4.0 | 7.0 | 0.00 | 0.00 | 0.00 | 85 | 1011.5 |
| 20260509131605 | 60 | 201 | 4.0 | 6.0 | 0.00 | 0.00 | 0.00 | 85 | 1011.3 |
| 20260509131056 | 60 | 227 | 3.0 | 6.0 | 0.00 | 0.00 | 0.00 | 85 | 1011.3 |
| 20260509130557 | 60 | 194 | 1.0 | 4.0 | 0.00 | 0.00 | 0.00 | 85 | 1011.4 |
| 20260509130127 | 59 | 178 | 2.0 | 4.0 | 0.00 | 0.00 | 0.00 | 86 | 1011.2 |
| 20260509125556 | 59 | 180 | 2.0 | 6.0 | 0.00 | 0.00 | 0.00 | 86 | 1011.3 |
| 20260509125055 | 58 | 213 | 2.0 | 6.0 | 0.00 | 0.00 | 0.00 | 86 | 1011.2 |
| 20260509124602 | 58 | 200 | 1.0 | 6.0 | 0.00 | 0.00 | 0.00 | 85 | 1011.1 |
| 20260509124055 | 58 | 163 | 3.0 | 6.0 | 0.00 | 0.00 | 0.00 | 84 | 1011.2 |
| 20260509123557 | 59 | 179 | 2.0 | 4.0 | 0.00 | 0.00 | 0.00 | 83 | 1011.2 |
| 20260509123123 | 59 | 159 | 0.0 | 0.0 | 0.00 | 0.00 | 0.00 | 83 | 1011.2 |
| 20260509122558 | 59 | 0 | 0.0 | 1.0 | 0.00 | 0.00 | 0.00 | 83 | 1011.2 |
| 20260509122056 | 58 | 0 | 0.0 | 1.0 | 0.00 | 0.00 | 0.00 | 84 | 1011.1 |
| 20260509121556 | 58 | 0 | 0.0 | 1.0 | 0.00 | 0.00 | 0.00 | 84 | 1011.0 |
| 20260509121056 | 58 | 0 | 0.0 | 0.0 | 0.00 | 0.00 | 0.00 | 85 | 1010.9 |
| 20260509120556 | 57 | 0 | 0.0 | 0.0 | 0.00 | 0.00 | 0.00 | 84 | 1010.9 |
| 20260509120056 | 58 | 0 | 0.0 | 2.0 | 0.00 | 0.00 | 0.00 | 85 | 1010.8 |
| 20260509115556 | 57 | 0 | 0.0 | 2.0 | 0.00 | 0.00 | 0.00 | 86 | 1010.8 |
| 20260509115055 | 57 | 0 | 0.0 | 2.0 | 0.00 | 0.00 | 0.00 | 86 | 1010.8 |
| 20260509114626 | 57 | 0 | 0.0 | 0.0 | 0.00 | 0.00 | 0.00 | 86 | 1010.8 |
| 20260509114056 | 57 | 0 | 0.0 | 0.0 | 0.00 | 0.00 | 0.00 | 86 | 1010.7 |
| 20260509113559 | 57 | 0 | 0.0 | 0.0 | 0.00 | 0.00 | 0.00 | 87 | 1010.7 |
| 20260509113112 | 56 | 0 | 0.0 | 3.0 | 0.00 | 0.00 | 0.00 | 87 | 1010.5 |
| 20260509112600 | 56 | 0 | 0.0 | 4.0 | 0.00 | 0.00 | 0.00 | 86 | 1010.4 |
| 20260509112056 | 57 | 96 | 1.0 | 4.0 | 0.00 | 0.00 | 0.00 | 86 | 1010.4 |
| 20260509111554 | 57 | 159 | 0.0 | 2.0 | 0.00 | 0.00 | 0.00 | 87 | 1010.2 |
| 20260509111055 | 56 | 0 | 0.0 | 0.0 | 0.00 | 0.00 | 0.00 | 87 | 1010.1 |
| 20260509110557 | 56 | 0 | 0.0 | 0.0 | 0.00 | 0.00 | 0.00 | 86 | 1010.0 |
| 20260509110059 | 56 | 0 | 0.0 | 4.0 | 0.00 | 0.00 | 0.00 | 86 | 1010.0 |
| 20260509105556 | 57 | 0 | 0.0 | 4.0 | 0.00 | 0.00 | 0.00 | 85 | 1010.0 |
| 20260509105056 | 57 | 163 | 0.0 | 3.0 | 0.00 | 0.00 | 0.00 | 85 | 1010.0 |
| 20260509104553 | 57 | 0 | 0.0 | 1.0 | 0.00 | 0.00 | 0.00 | 85 | 1010.0 |
| 20260509104056 | 57 | 0 | 0.0 | 2.0 | 0.00 | 0.00 | 0.00 | 85 | 1010.0 |
| 20260509103555 | 57 | 0 | 0.0 | 5.0 | 0.00 | 0.00 | 0.00 | 85 | 1010.0 |
| 20260509103104 | 57 | 157 | 1.0 | 5.0 | 0.00 | 0.00 | 0.00 | 84 | 1010.0 |
| 20260509102556 | 58 | 149 | 1.0 | 5.0 | 0.00 | 0.00 | 0.00 | 83 | 1010.0 |
| 20260509102056 | 58 | 179 | 0.0 | 2.0 | 0.00 | 0.00 | 0.00 | 83 | 1010.0 |
| 20260509101602 | 58 | 0 | 0.0 | 0.0 | 0.00 | 0.00 | 0.00 | 83 | 1009.9 |
| 20260509101056 | 58 | 0 | 0.0 | 2.0 | 0.00 | 0.00 | 0.00 | 82 | 1010.0 |
| 20260509100555 | 58 | 0 | 0.0 | 2.0 | 0.00 | 0.00 | 0.00 | 82 | 1010.0 |
| 20260509100056 | 58 | 109 | 0.0 | 4.0 | 0.00 | 0.00 | 0.00 | 82 | 1010.0 |
| 20260509095558 | 58 | 0 | 0.0 | 6.0 | 0.00 | 0.00 | 0.00 | 82 | 1010.1 |
| 20260509095057 | 58 | 253 | 2.0 | 6.0 | 0.00 | 0.00 | 0.00 | 82 | 1010.1 |